Location: Acton
(51.4942°N, 0.2232°W)
Time: 03:55:32
(UTC+00:00)

Terra - Pass Details

Date: 18 September 2020
Orbit: 701 x 703 km, 98.2° (Epoch: 22 October)

Event Time Altitude Azimuth Distance (km) Brightness Sun altitude
Exits shadow 21:58:04 41° 337° (NNW) 1,019 3.0 -31.6°
Drops below altitude 10° 22:01:12 10° 344° (NNW) 2,183 5.1 -31.9°
Sets 22:03:28 0° 345° (NNW) 3,106 6.1 -32.1°
